Presure
127 138 150 159 175 165 195 181 192 169 187 171 178 185 192 203 235 238 259 268 272 301 281 266 247 237 234 229 238 177 175 148 226 215 222 261 243 234 228 226 199 214 215 190 226 246 241
137 158 147 163 190 170 172 167 174 190 157 162 200 183 168 174 236 236 235 251 276 307 303 271 264 246 237 232 235 220 243 246 244 208 207 210 254 256 236 232 232 224 198 179 214 220 227
188 162 182 132 132 137 176 176 171 165 158 200 166 200 182 198 162 236 231 246 254 271 312 314 271 262 239 231 240 227 229 237 243 243 272 242 262 239 285 266 247 238 235 235 132 139 199
162 165 136 136 174 155 161 157 151 159 165 180 172 162 176 194 182 180 218 184 260 281 303 320 310 267 251 249 234 226 233 223 240 241 243 254 259 221 251 168 226 216 224 265 250 134 154
169 170 158 107 131 134 151 169 175 165 176 149 158 162 173 190 152 186 176 194 193 265 272 330 314 301 259 250 253 234 229 221 198 230 246 161 232 245 280 250 267 261 259 287 287 286 288
174 189 133 178 156 140 162 163 147 147 149 150 142 166 164 163 171 190 174 202 191 245 286 292 317 304 300 258 248 242 235 230 223 235 236 239 178 261 257 290 249 246 274 275 264 233 226
170 146 151 160 127 136 184 166 185 141 152 157 184 159 150 185 189 157 216 182 195 203 241 301 319 309 323 296 258 245 237 238 219 233 237 239 228 228 232 251 265 272 270 269 266 258 252
119 177 186 185 157 157 146 176 171 170 156 159 170 180 164 200 160 188 158 174 159 174 215 264 304 318 331 303 282 248 243 234 232 224 223 240 236 183 233 260 252 242 264 259 265 254 250
147 123 156 117 172 181 177 144 158 151 148 171 146 169 171 179 189 175 163 183 164 160 184 180 266 301 310 315 293 265 245 244 232 234 227 200 233 196 237 227 256 256 246 248 262 258 225
173 167 151 158 152 152 183 178 176 131 174 176 169 173 179 142 157 158 201 153 154 172 196 215 207 258 313 304 307 288 261 244 241 232 229 234 225 225 225 234 160 252 254 252 270 259 258
177 125 126 174 189 129 133 179 138 188 148 178 184 146 175 151 179 190 188 160 171 163 164 223 241 190 264 325 300 275 295 258 243 241 237 231 220 163 224 232 224 240 252 244 262 267 256
149 178 147 125 148 140 133 168 181 144 186 163 145 183 166 193 174 152 175 185 133 164 201 202 193 159 211 262 307 300 290 287 260 244 241 244 220 234 233 225 229 232 240 258 241 269 253
127 172 173 179 133 155 185 140 122 175 160 151 171 172 154 172 143 171 200 152 167 190 193 168 214 162 244 175 263 296 311 294 269 255 246 246 230 227 224 227 233 228 242 247 259 245 249
129 135 155 166 127 191 170 176 139 142 182 187 131 151 195 174 175 171 172 166 183 119 153 196 211 221 175 187 255 253 294 294 286 263 248 241 238 233 230 224 234 231 236 242 267 243 247
141 146 137 156 121 171 146 124 155 171 166 182 187 151 178 142 184 181 167 168 182 169 175 175 187 214 213 246 239 259 241 297 284 278 256 245 241 236 228 231 237 232 240 241 262 228 246
154 156 153 183 151 119 146 164 138 155 170 191 164 183 162 177 181 175 164 179 200 131 185 168 189 174 180 180 239 225 243 230 203 257 270 257 236 232 232 232 236 237 241 249 258 245 249
137 154 166 160 161 165 172 160 161 175 170 185 184 185 158 172 177 156 175 162 195 200 187 187 172 206 154 207 200 243 243 242 300 281 272 267 243 235 233 233 235 247 237 236 251 240 248
169 144 156 178 137 140 153 158 175 144 182 179 172 181 171 146 164 189 152 177 183 198 191 157 176 198 214 174 169 239 240 148 281 187 268 273 253 240 237 239 233 250 234 232 246 248 222
142 171 155 155 170 143 162 172 133 177 183 188 154 183 197 183 184 169 194 178 191 186 192 193 202 182 189 180 201 179 245 241 245 278 284 265 265 251 241 242 248 247 234 229 245 246 222
161 164 156 151 156 173 173 180 168 184 168 163 174 157 162 182 198 180 182 196 185 171 188 182 163 178 194 197 198 210 245 250 243 279 292 275 251 259 259 253 247 239 228 223 236 241 237
168 175 121 170 144 170 174 182 126 162 182 170 192 171 192 168 193 163 202 145 184 187 192 166 175 204 160 181 221 223 246 240 246 282 279 282 259 247 255 252 239 234 232 232 228 234 239
180 137 141 182 140 173 160 182 190 122 181 180 191 163 182 174 160 188 179 184 196 188 196 174 161 202 187 206 233 213 253 244 246 275 279 284 276 260 237 247 251 240 243 223 216 227 229
158 180 179 173 163 184 185 165 174 195 200 189 189 192 171 195 198 180 190 177 158 184 187 204 208 198 201 215 209 222 258 250 247 258 287 284 287 263 247 235 240 239 240 233 217 227 226
184 148 183 166 182 157 177 169 166 185 176 200 194 195 162 200 180 198 182 184 194 190 181 186 192 203 203 208 214 231 261 250 259 261 284 282 281 273 244 242 239 241 237 236 226 224 226
183 175 173 119 172 181 180 172 196 172 182 129 185 194 190 161 187 182 197 181 174 173 199 182 207 197 213 211 232 245 261 256 278 270 289 281 294 280 258 241 237 245 243 247 248 232 228
184 182 172 148 183 195 189 185 195 190 189 167 210 195 174 195 173 201 191 152 190 203 202 198 181 216 203 254 250 254 268 268 277 318 291 278 279 289 259 247 237 243 258 240 243 246 244
178 169 185 186 158 177 186 184 179 168 192 200 160 190 175 162 178 201 185 197 176 173 183 169 210 201 220 243 269 266 272 264 269 330 296 278 274 288 262 249 242 236 247 251 252 249 240
186 185 182 191 194 181 183 164 191 193 196 195 181 164 190 190 166 190 167 200 202 186 208 206 204 211 229 268 277 276 281 278 327 326 299 290 278 281 270 254 242 238 242 248 249 248 244
180 200 205 196 188 186 194 188 200 179 189 181 201 181 183 201 210 176 196 192 202 209 206 207 221 248 235 277 284 284 286 314 346 336 301 294 281 280 277 260 250 243 235 250 250 248 235
Wind_Speed
23 17 24 45 34 30 47 48 45 41 49 44 54 45 52 46 61 56 68 53 47 34 29 29 28 27 29 26 25 34 36 40 31 28 28 37 40 39 37 38 44 40 40 40 37 38 44
19 39 25 48 32 44 43 25 45 46 35 42 56 55 40 47 63 60 56 65 56 40 32 26 29 27 29 28 26 28 28 28 30 31 29 28 34 41 42 42 43 42 47 45 45 45 46
17 37 18 22 24 33 37 38 44 54 34 64 54 61 55 59 22 68 61 62 64 52 39 33 26 28 26 27 28 28 29 30 30 29 25 32 30 34 40 44 46 45 44 45 43 43 51
26 35 24 22 26 55 52 40 46 57 58 47 58 36 50 58 59 54 69 39 71 58 51 33 25 27 25 29 27 28 29 29 29 29 29 27 28 31 33 43 39 39 41 50 52 45 46
22 23 27 22 25 32 29 37 46 35 43 29 48 54 48 64 43 63 46 59 51 72 57 32 27 25 28 27 29 27 31 29 32 31 29 37 28 28 24 33 33 36 38 37 40 42 44
22 23 24 24 43 26 26 35 42 34 30 31 26 47 52 56 45 55 60 63 54 75 71 49 29 25 26 31 26 27 30 30 31 29 28 29 34 24 26 21 33 36 33 35 38 45 46
25 32 46 41 27 35 33 44 47 34 33 59 46 47 37 46 55 33 79 64 67 52 74 64 41 33 22 27 31 28 28 30 30 31 28 27 32 32 31 28 26 28 32 35 37 41 48
28 31 28 29 41 29 45 27 30 44 61 53 50 52 57 66 55 58 32 36 27 52 71 77 46 37 18 19 26 27 31 31 31 30 26 28 26 35 32 28 30 33 31 34 37 40 41
44 32 43 31 28 37 40 31 31 48 59 53 40 56 45 51 55 56 63 57 35 28 59 49 73 56 35 18 22 29 30 32 33 35 34 28 28 31 28 35 32 31 35 36 35 40 40
33 32 46 45 49 49 41 37 33 32 37 38 52 43 45 32 36 56 64 27 27 65 58 75 64 72 40 31 23 27 34 34 34 34 36 33 33 32 31 33 37 36 36 38 34 36 37
32 27 26 31 43 39 35 43 42 47 54 45 57 42 50 49 52 50 55 48 64 46 49 86 75 51 71 32 30 29 30 38 39 38 37 34 34 32 36 36 37 38 38 40 38 39 36
42 42 39 37 32 53 31 38 50 47 55 48 43 54 49 53 53 44 58 48 33 57 70 53 62 40 65 68 39 33 32 32 41 41 38 39 34 35 38 40 37 39 40 39 40 43 41
31 42 42 45 49 45 51 41 31 41 44 42 41 55 55 52 33 64 66 53 66 66 48 58 77 39 80 45 69 45 27 27 35 40 43 37 33 33 37 40 42 39 40 39 38 41 45
36 47 51 49 34 53 52 47 48 47 51 54 34 43 58 48 55 65 64 66 50 20 35 49 78 86 48 56 75 64 42 29 30 39 43 42 36 34 35 39 40 42 43 40 38 34 41
48 56 43 53 32 42 38 41 58 50 51 49 63 60 50 41 50 49 57 71 48 70 65 66 56 84 82 79 75 74 59 36 33 33 40 44 41 38 38 39 40 39 41 41 37 34 38
49 54 53 57 52 43 44 45 53 50 57 64 50 46 50 61 64 64 49 68 75 40 58 62 67 60 60 57 77 64 69 59 28 36 35 40 40 42 41 41 39 38 38 42 39 31 33
55 60 52 53 49 50 50 46 56 53 48 60 55 59 62 53 58 64 48 60 68 69 54 60 58 83 36 89 63 77 74 67 39 39 38 35 41 47 44 42 40 40 35 39 39 33 35
54 62 60 58 56 60 62 58 55 64 56 64 49 51 52 57 68 61 36 57 55 72 62 36 65 69 96 63 58 78 77 48 55 35 39 36 39 47 49 45 41 38 35 38 36 35 28
64 60 61 57 62 48 63 63 55 56 61 67 65 62 74 68 57 69 58 59 56 66 73 61 78 70 65 65 73 66 80 77 72 52 40 37 36 42 47 47 42 33 33 37 34 34 28
57 55 63 59 60 65 65 66 58 67 63 63 52 67 61 56 72 54 56 66 52 73 66 69 50 68 85 66 86 98 78 75 73 58 42 39 37 37 41 42 34 31 33 36 30 30 31
56 65 39 62 70 66 64 66 49 64 66 57 74 58 75 73 71 67 81 43 65 62 80 70 75 100 46 68 104 103 80 76 76 60 51 37 39 36 41 38 38 33 33 31 31 29 27
76 66 68 68 67 57 65 67 74 49 70 64 76 68 78 59 77 58 58 55 79 68 73 76 64 90 75 102 111 94 84 80 79 65 50 41 36 36 42 41 37 36 27 35 36 31 26
65 73 67 61 64 77 79 61 60 81 78 68 76 80 55 82 85 62 81 61 74 72 72 96 101 81 89 115 91 114 81 81 76 76 54 41 35 34 38 43 43 41 33 32 39 32 29
86 59 78 56 75 67 67 64 74 77 65 89 80 81 69 96 67 87 73 60 67 67 80 72 89 99 95 101 101 113 81 82 81 77 56 44 41 35 35 41 45 45 38 31 35 34 32
85 62 62 41 61 81 76 67 89 64 71 47 68 81 80 79 74 73 84 58 83 64 86 76 110 80 107 99 124 105 82 81 80 68 52 46 40 37 34 43 46 45 40 37 32 34 33
99 90 62 77 82 106 85 80 96 83 81 58 101 88 71 95 70 100 75 70 69 99 106 85 79 120 93 105 113 97 84 81 71 46 45 44 42 38 36 38 43 46 38 36 33 29 31
87 67 99 92 71 64 85 79 68 63 86 101 67 79 71 81 88 100 71 89 75 81 81 80 116 84 118 124 93 91 86 79 72 37 38 42 44 39 40 38 44 45 41 40 32 29 33
112 106 95 108 94 88 93 65 98 98 96 92 67 66 88 85 78 91 88 99 101 85 117 106 96 107 117 105 93 90 84 77 56 40 38 41 44 44 44 41 46 44 43 42 37 31 32
90 123 121 104 96 91 109 97 112 73 86 65 112 75 92 103 113 78 100 88 110 115 105 105 121 112 123 98 91 89 80 68 45 36 40 41 45 45 48 46 45 45 43 43 40 35 39
Wind_Direction
299 302 351 355 11 355 27 12 20 352 0 356 355 3 10 6 18 18 12 6 5 334 300 288 293 299 301 301 305 274 271 266 275 277 281 267 263 263 262 258 253 249 250 255 252 259 256
294 335 314 343 36 342 339 356 344 19 348 354 22 353 358 1 18 16 13 10 3 350 334 298 285 284 293 297 301 294 302 293 285 273 273 274 268 262 262 263 262 255 253 254 251 252 253
26 353 13 303 302 322 338 359 342 345 338 25 355 24 3 8 346 18 11 11 6 2 346 323 284 281 284 291 293 294 295 299 298 291 296 281 273 269 264 263 262 263 262 263 263 263 253
314 327 326 311 341 341 339 335 347 345 344 3 345 342 356 9 349 356 17 355 7 4 357 334 317 274 278 273 287 290 293 293 301 298 294 293 284 272 268 267 265 262 262 264 261 264 264
323 334 313 296 311 307 356 336 351 342 4 337 348 346 4 2 340 346 345 351 359 8 1 334 322 302 271 279 273 281 287 292 283 295 301 269 282 280 281 271 273 271 271 274 276 276 276
315 353 313 330 335 313 349 347 343 328 330 331 319 348 347 345 0 356 346 2 359 10 8 358 335 323 288 272 278 276 280 286 292 297 295 298 275 305 289 300 274 273 280 278 274 267 265
289 340 325 311 295 335 355 327 10 337 326 338 5 334 344 358 360 347 19 344 355 3 7 7 353 338 296 276 271 276 278 280 284 295 298 300 290 288 283 292 293 289 283 282 279 278 279
285 335 342 348 319 334 330 344 318 336 333 337 328 0 337 12 336 355 343 356 341 346 6 7 351 347 309 282 273 268 276 282 284 286 289 306 293 280 290 316 296 285 290 286 284 279 281
317 294 329 299 301 336 328 327 343 321 338 339 340 328 344 341 0 340 338 339 340 340 345 350 6 5 344 299 282 261 271 275 283 286 290 285 297 282 297 287 312 300 289 285 285 285 277
310 302 315 315 313 329 338 332 320 315 336 339 329 326 344 322 340 336 14 329 328 338 349 9 6 6 351 333 298 281 269 278 277 280 284 290 287 285 292 298 273 311 303 296 299 289 286
310 287 297 312 333 305 330 336 337 345 327 342 348 329 337 335 331 1 359 331 333 336 340 16 8 358 6 325 323 323 284 274 279 278 278 282 284 261 289 297 290 305 311 300 309 306 293
312 312 314 295 319 315 308 312 328 318 338 314 321 339 333 351 339 329 326 341 325 332 4 0 347 326 359 4 343 325 300 279 271 277 280 277 281 291 296 290 295 300 304 317 302 317 305
301 308 312 316 302 322 323 303 299 322 323 313 316 322 331 313 319 313 1 312 326 350 345 332 3 330 4 339 3 349 318 293 275 276 278 278 277 281 286 292 296 293 307 312 315 310 307
298 303 299 309 285 320 316 319 321 307 330 335 317 325 345 321 314 309 318 325 330 298 323 346 4 4 337 342 0 358 342 315 288 276 275 281 280 279 284 288 296 297 303 306 317 307 310
298 295 296 294 276 309 297 311 309 313 318 323 330 317 324 316 335 322 315 313 345 322 321 326 334 4 358 357 358 356 352 323 309 287 276 275 281 283 284 287 295 295 304 306 314 306 318
295 301 293 304 307 292 307 300 314 312 314 326 304 326 315 332 330 323 314 326 353 300 335 325 338 337 347 328 354 349 354 350 315 303 284 274 279 282 284 285 292 297 304 308 311 312 320
289 296 296 297 305 300 304 299 301 312 301 322 325 326 312 313 323 317 317 309 351 353 326 328 332 358 339 358 339 347 348 346 319 306 297 279 277 281 283 288 292 301 299 302 312 313 323
293 286 295 302 301 301 293 297 308 307 311 318 313 320 305 318 315 325 310 307 318 350 338 325 318 350 355 324 322 343 345 312 336 309 298 287 273 277 282 284 289 297 295 298 312 316 307
281 290 292 291 302 300 297 302 308 303 309 313 308 317 325 323 320 300 338 303 344 329 344 337 349 320 329 331 344 331 341 340 341 324 299 290 277 272 277 281 290 291 290 295 312 315 307
286 289 288 290 286 298 299 301 297 308 310 294 303 298 300 315 327 311 322 336 335 320 325 334 325 314 336 343 340 347 336 336 336 327 306 287 282 278 267 275 279 282 285 294 305 312 314
282 289 282 293 293 298 298 301 287 307 309 292 316 303 319 307 324 305 333 295 312 325 337 312 308 342 320 317 340 344 334 334 333 326 312 294 281 281 276 273 275 273 279 285 294 302 312
290 281 284 294 290 293 301 304 306 292 302 304 315 292 316 296 299 317 311 305 327 318 335 305 316 342 316 340 340 345 332 330 331 326 309 296 273 271 275 274 271 271 269 277 287 291 300
270 289 293 293 279 303 303 286 299 307 306 306 310 314 297 322 322 310 322 296 309 326 315 335 339 333 332 337 339 337 328 326 327 324 310 294 274 264 267 272 273 270 267 265 280 284 290
290 284 296 275 299 273 300 292 298 300 297 309 311 313 291 318 299 319 311 304 324 324 327 314 327 332 327 332 333 335 325 324 322 319 307 292 279 256 260 268 268 269 273 269 269 276 282
290 284 284 274 289 299 298 292 304 290 298 290 305 310 307 301 313 306 323 291 303 318 325 306 330 318 330 330 331 328 323 322 316 315 302 291 282 254 250 260 267 267 268 272 271 269 272
288 290 278 278 296 297 298 303 305 306 307 291 307 311 293 312 293 318 314 305 313 326 326 321 299 324 323 324 326 323 319 318 314 298 290 285 277 255 249 253 262 263 265 265 264 266 265
285 276 290 291 271 289 298 299 298 280 301 305 301 309 295 284 305 318 307 321 290 294 303 303 321 312 324 325 318 319 316 316 313 290 275 274 269 257 248 249 253 261 261 263 258 255 255
283 285 287 289 287 286 294 279 300 301 303 304 301 296 305 313 286 314 298 320 315 305 318 317 317 322 324 319 316 316 314 313 300 283 267 263 259 256 244 244 250 256 257 257 256 248 248
283 283 283 286 291 292 294 294 298 293 302 295 306 299 292 308 308 300 315 310 316 315 315 316 318 318 319 316 314 311 312 305 292 268 262 257 254 254 247 243 248 254 258 253 253 244 252